Regional Weather Roundup
Issued by NWS State College, PA

Home | Current Version | Previous Version | Text Only | Print | Product List | Glossary Off
Versions: 1 2 3 4 5 6 7 8 9 10 11 12 13 14 15 16 17 18 19 20 21 22 23 24 25 26 27 28 29 30 31 32 33 34 35 36 37 38 39 40 41 42 43 44 45 46 47 48 49 50

000
ASUS41 KCTP 231203
RWRCTP

REGIONAL WEATHER ROUNDUP
NATIONAL WEATHER SERVICE STATE COLLEGE PA
700 AM EST MON JAN 23 2017

Note: "fair" indicates few or no clouds below 12,000 feet with no
significant weather and/or obstructions to visibility.

* = STATION THAT DOES NOT REPORT PRECIPITATION /E.G. RAIN...SNOW...ETC/
    THUNDER OR FOG.

PAZ002>004-007>009-013>016-020>023-029>032-231300-
WESTERN PENNSYLVANIA

CITY           SKY/WX    TMP DP  RH WIND       PRES   REMARKS
ERIE           CLOUDY    38  37  97 NE13      29.62S FOG
MEADVILLE      CLOUDY    48  42  80 E12       29.58R
FRANKLIN*        N/A     46  39  76 E12G24    29.59R
NEW CASTLE     LGT RAIN  49  43  80 E10G20    29.56R
BEAVER COUNTY  LGT RAIN  46  45  93 E8        29.52
BUTLER*        CLOUDY    46  39  76 E17G25    29.56S
PITTSBURGH INT DRIZZLE   49  44  83 E14       29.51R
PITTSBURGH     CLOUDY    49  39  68 E13G26    29.50R
INDIANA*       CLOUDY    46  43  87 E17       29.58S
LATROBE        CLOUDY    48  41  76 E12G23    29.53S
WASHINGTON CO* CLOUDY    48  41  76 E20G26    29.49R
$$

PAZ004>006-010>012-017>019-024>028-033>037-041-042-045-046-049>053-231300-
CENTRAL PENNSYLVANIA

CITY           SKY/WX    TMP DP  RH WIND       PRES   REMARKS
BRADFORD       CLOUDY    44  41  89 E12G21    29.63S
DUBOIS         CLOUDY    45  39  79 E14G24    29.59R
CLEARFIELD     CLOUDY    44  42  93 E14G22    29.62R
JOHNSTOWN      LGT RAIN  41  40  96 E16G29    29.51S FOG
ALTOONA        CLOUDY    43  40  89 E17G25    29.57S
STATE COLLEGE  RAIN      41  39  93 E14G25    29.64S
WILLIAMSPORT   CLOUDY    44  36  73 E18       29.71S
SELINSGROVE    LGT RAIN  43  39  86 E12G18    29.70F
FT INDIANTOWN  CLOUDY    42  42 100 E16G28    29.66F
CAPITAL CITY   CLOUDY    44  39  82 E21G31    29.64F
HARRISBURG     LGT RAIN  43  41  93 E15G23    29.64F
YORK           LGT RAIN  42  41  96 E23G31    29.60F FOG
$$

PAZ038>040-043-044-047-048-054-055-060>062-067>071-231300-
EASTERN PENNSYLVANIA

CITY           SKY/WX    TMP DP  RH WIND       PRES   REMARKS
SCRANTON       CLOUDY    40  36  86 NE13G21   29.74F
MOUNT POCONO   FOG       33  32  96 E20G32    29.72F VSB 1/2
ALLENTOWN      CLOUDY    43  35  73 E25G35    29.74F
QUAKERTOWN*    CLOUDY    39  39 100 E15G25    29.74R
READING        CLOUDY    42  40  92 NE13G31   29.69F
LANCASTER      CLOUDY    43  41  93 E18G37    29.65S
COATESVILLE    CLOUDY    41  39  93 E30G40    29.65F
POTTSTOWN      CLOUDY    41  37  86 E16G31    29.72S
BLUE BELL      CLOUDY    39  36  87 E22G32    29.71F
DOYLESTOWN     CLOUDY    42  38  85 NE10G23   29.74R
WILLOW GROVE   NOT AVBL
NORTH PHILA    CLOUDY    43  39  86 E23G35    29.75R
PHILADELPHIA   DRIZZLE   43  39  86 NE22G32   29.70R
$$




USA.gov is the U.S. government's official web portal to all federal, state and local government web resources and services.